User: anonymous   Login
Location: Mentone
(34.5413°N, 85.5351°W)
Time: 09:52:56
(UTC-05:00)
Language:

S-56A Canister/Altair - Orbit

View from above orbital plane
View from above orbital plane
View from above satellite
View from above satellite

Ground track
Ground track

The orbit data is extracted from the following two-line orbital elements,

1    82U 61004B   17147.58607148 +.00000078 +00000-0 +11641-3 0  9991
2    82 038.8554 013.3334 1169306 094.1233 279.3644 12.25838525670739
Epoch (UTC): 27 May 2017 14:03:56
Eccentricity: 0.1169306
inclination: 38.8554°
perigee height: 638 km
apogee height: 2496 km
right ascension of ascending node: 13.3334°
argument of perigee: 94.1233°
revolutions per day: 12.25838525
mean anomaly at epoch: 279.3644°
orbit number at epoch: 67073

The dashed part of the orbit path shows where the satellite is in the earth's shadow,  

DLR